DELTA 4 R/B, 41746

Orbit data source: Space-Track

DELTA 4 R/B, 41746 is space debris in GEO originally from a launch on Fri, 19 Aug 2016 UTC launched from the Air Force Eastern Test Range (AFETR). Debris objects in space refer to the collection of defunct objects orbiting the Earth. Examples of debris include non-operational satellites, rocket bodies, and fragments generated from explosions, collisions, or faulty payload assembly.

Not visible in the next 10 days
Identifier
41746, 2016-052C
Orbit
GEO
Country
Flag of USUS
Related business
Flag of USUnited Launch Alliance/Lockheed Martin (US)
Manufacturer
ULA Decatur
Mission
Spacecraft
Bus & Motor
DCSS-4, RL10B-2
Mass
2,850 kg wet, 2,850 kg dry
Launch date (UTC)
2016-08-19 (10 years ago)
Launch vehicle
Unknown
Launch site
Air Force Eastern Test Range (AFETR)
Object type
Payload
Rocket body
Debris
Shape & HBR
Cyl + 1 Nozzle, 6.0 m
Radar Cross Section
43.982 m²

Expand to show TLE details & history
Last TLE update: 1 day ago

TLE from 1 day ago
0 DELTA 4 R/B
1 41746U 16052C   26073.63509245 -.00000080  00000-0  00000-0 0  9997
2 41746   8.4910  58.8632 0007055 323.5187  36.5496  0.98994108 24742
Epoch: 2026-03-14T15:14Z
TLE epoch observation values (Epoch: 2026-03-14T15:14:31.987Z)
Latitude
Longitude
18.09864°
Altitude
36,124.08 km
Speed
3.063 km/s
True Right ascension
03h 55m 56s
True Declination
0° 00' 00"
Sunlit
Object was in daylight at epoch
Visualization orbit readout
Latitude
Unknown
Longitude
Unknown
Altitude
Unknown
Speed
Unknown
Apparent Right ascension
Unknown
Apparent Declination
Unknown
Sunlit
N/A
Visualization observer readout
Local Sidereal Time
02:45:30
Azimuth
Unknown
Elevation
Unknown
Doppler factor
Unknown
Orbital elements
Apogee altitude
36,179.652 km
Perigee altitude
36,119.646 km
Semi-major axis
42,527.786 km
Eccentricity
0.00071
Inclination
8.491°
RAAN
58.8632°
Arg. of periapsis
323.5187°
True anomaly
36.59778°
Mean anomaly
36.5496°
Eccentric anomaly
36.57369°
Mean motion
0.24748 °/min
Orbital period
1,454.68 mins
BSTAR
0
Loading maneuver chart data...
Computing Atmospheric mass density...
Loading historical data...
Loading historical data...
Loading historical data...
Loading historical data...
Loading historical data...
Loading historical data...
Loading historical data...
Other satellites on launch #52 in the year 2016 (2016-08-19 UTC)

Documentation

Showing up to 5 results
|